Hallock, MN

2:00 PM CDT on March 26, 2017 (GMT -0500)
Hallock Municipal

Weather History for KHCO - October, 2012

Change the Weather History Date:

Saturday, October 6, 2012

  Actual Average Record
Temperature  
Mean Temperature 35 °F -  
Max Temperature 44 °F 56 °F 84 °F (1961)
Min Temperature 26 °F 33 °F 18 °F (1976)
Degree Days  
Heating Degree Days 30    
Moisture  
Dew Point 30 °F    
Average Humidity 81    
Maximum Humidity 100    
Minimum Humidity 57    
Precipitation  
Precipitation 0.00 in - - ()
Sea Level Pressure  
Sea Level Pressure 30.25 in    
Wind  
Wind Speed 6 mph (WSW)    
Max Wind Speed 10 mph    
Max Gust Speed -    
Visibility 10 miles    
Events      
Averages and records for this station are not official NWS values.
T = Trace of Precipitation, MM = Missing Value Source: NWS Daily Summary

Daily Weather History Graph

Daily Weather History Graph

Search for Another Location

Airport or City:

Trip Planner

Search our weather history database for the weather conditions in past years. The results will help you decide how hot, cold, wet, or windy it might be!

Date:

Astronomy

Oct. 06, 2012 Rise Set
Actual Time 7:35 AM CDT 6:55 PM CDT
Civil Twilight 7:03 AM CDT 7:26 PM CDT
Nautical Twilight 6:27 AM CDT 8:02 PM CDT
Astronomical Twilight 5:50 AM CDT 8:39 PM CDT
Moon 10:49 PM CDT (10/6) 1:53 PM CDT (10/6)
Length of Visible Light 12h 22m
Length of Day
11h 19m
Waning Gibbous, 65% of the Moon is Illuminated
Oct 6
Waning Gibbous
Oct 8
Last Quarter
Oct 15
New
Oct 21
First Quarter
Oct 29
Full

Hourly Weather History & Observations

Time (CDT) Temp. Windchill Dew Point Humidity Pressure Visibility Wind Dir Wind Speed Gust Speed Precip Events Conditions
8:01 AM 26.6 °F 20.0 °F 26.6 °F 100% 30.33 in 10.0 mi West 5.8 mph - N/A   Unknown
8:41 AM 26.6 °F 22.6 °F 26.6 °F 100% 30.33 in 10.0 mi West 3.5 mph - N/A   Unknown
9:01 AM 28.4 °F 24.6 °F 26.6 °F 93% 30.33 in 10.0 mi West 3.5 mph - N/A   Unknown
9:41 AM 30.2 °F 26.7 °F 28.4 °F 93% 30.34 in 10.0 mi West 3.5 mph - N/A   Unknown
10:01 AM 30.2 °F 26.7 °F 30.2 °F 100% 30.34 in 10.0 mi West 3.5 mph - N/A   Unknown
10:21 AM 33.8 °F 29.6 °F 30.2 °F 87% 30.34 in 10.0 mi West 4.6 mph - N/A   Unknown
11:41 AM 35.6 °F 31.7 °F 32.0 °F 87% 30.34 in 10.0 mi West 4.6 mph - N/A   Unknown
12:21 PM 37.4 °F 33.8 °F 33.8 °F 87% 30.32 in 10.0 mi West 4.6 mph - N/A   Unknown
1:41 PM 41.0 °F 35.8 °F 30.2 °F 65% 30.29 in 10.0 mi West 8.1 mph - N/A   Unknown
2:41 PM 42.8 °F 39.3 °F 30.2 °F 61% 30.26 in 10.0 mi West 5.8 mph - N/A   Unknown
3:21 PM 44.6 °F 39.7 °F 30.2 °F 57% 30.24 in 10.0 mi WSW 9.2 mph - N/A   Unknown
3:41 PM 44.6 °F 39.2 °F 30.2 °F 57% 30.23 in 10.0 mi WSW 10.4 mph - N/A   Unknown
6:01 PM 44.6 °F 39.7 °F 33.8 °F 66% 30.17 in 10.0 mi SW 9.2 mph - N/A   Unknown
6:41 PM 42.8 °F 37.0 °F 33.8 °F 70% 30.16 in 10.0 mi SW 10.4 mph - N/A   Unknown
7:41 PM 37.4 °F 32.1 °F 32.0 °F 81% 30.15 in 10.0 mi SSW 6.9 mph - N/A   Unknown
8:01 PM 35.6 °F 29.9 °F 32.0 °F 87% 30.15 in 10.0 mi SSW 6.9 mph - N/A   Unknown
9:01 PM 35.6 °F 29.2 °F 30.2 °F 81% 30.13 in 10.0 mi SSW 8.1 mph - N/A   Unknown
9:21 PM 33.8 °F 27.0 °F 30.2 °F 87% 30.12 in 10.0 mi South 8.1 mph - N/A   Unknown
10:01 PM 33.8 °F 26.4 °F 30.2 °F 87% 30.10 in 10.0 mi South 9.2 mph - N/A   Unknown